Location: Barba
(41.0333°N, 14.7667°E)
Time: 21:14:08
(UTC+00:00)

Daily predictions for brighter satellites

Satellite Brightness Start Highest point End
(mag) Time Altitude Azimuth Time Altitude Azimuth Time Altitude Azimuth
ATLAS 5 CENTAUR R/B 1.7 19:03:23 10° SSW 19:07:15 46° ESE 19:11:28 10° NE
Cosmos 1602 Rocket 3.7 19:03:05 10° S 19:07:22 54° E 19:11:43 10° NNE
DMSP B5D2-2 4.1 19:02:14 10° NNE 19:07:29 85° ESE 19:12:41 10° SSW
OAO 2 Rocket 4.1 19:03:27 10° SW 19:08:17 37° SSE 19:13:09 10° ESE
Meteor 2-10 Rocket 4.0 19:07:59 10° N 19:12:55 45° ENE 19:18:00 10° SSE
Meteor 2-16 Rocket 4.4 19:07:30 10° S 19:13:34 76° E 19:19:38 10° N
MOS 1 Rocket 4.4 19:09:14 10° N 19:13:51 51° WNW 19:18:44 10° SSW
Nadezhda 1 Rocket 4.4 19:08:07 10° N 19:14:19 48° ENE 19:20:26 10° SSE
Cosmos 1844 Rocket 3.6 19:09:38 10° N 19:14:42 34° ENE 19:19:44 10° ESE
Cosmos 1125 Rocket 3.5 19:10:44 10° NNW 19:16:01 82° ENE 19:21:18 10° SSE
H-2A R/B 4.1 19:18:10 10° SSW 19:22:47 28° W 19:27:26 10° NW
CZ-2C R/B 4.0 19:18:42 10° N 19:23:30 82° WNW 19:28:16 10° SSW
SPOT 3 Rocket 3.8 19:25:25 10° S 19:30:36 76° WSW 19:35:52 10° NNW
Cosmos-2242 4.0 19:27:53 10° NNE 19:31:47 31° ENE 19:35:05 13° SE
Cosmos 1400 Rocket 3.8 19:30:07 10° NNE 19:33:38 30° ENE 19:36:24 14° SE
Resurs 01 Rocket 1.6 19:32:08 10° SSE 19:36:32 86° E 19:40:58 10° NNW
Terra 3.9 19:36:40 10° E 19:39:10 14° ENE 19:41:41 10° NNE
Geosat 4.1 19:37:22 10° SSE 19:42:22 75° WSW 19:47:26 10° NNW
BREEZE-M DEB (TANK) 3.7 19:35:08 10° SW 19:42:51 39° SSE 19:45:32 10° E
Cosmos 2322 Rocket 3.6 19:40:14 10° SW 19:45:30 41° WNW 19:50:50 10° N
NOSS 3-3 (A) 4.2 19:42:52 10° S 19:48:14 43° ESE 19:54:09 10° NE
NOSS 3-3 (C) 4.2 19:42:59 10° S 19:48:21 43° ESE 19:54:16 10° NE
BREEZE M DEB (TANK) 3.8 19:47:06 10° NW 19:49:37 24° NNE 19:51:25 10° ENE
Cosmos 1758 Rocket 3.6 19:48:30 10° S 19:52:59 83° E 19:57:31 10° N
Cosmos 783 Rocket 4.5 19:48:15 10° SSW 19:53:30 88° ESE 19:58:46 10° NNE
IRIS 3.8 19:50:08 10° W 19:53:31 86° S 19:55:22 16° E
SL-24 R/B - RUBIN 2 4.4 19:48:40 10° SSW 19:54:34 82° ESE 20:01:08 10° NE
USA 245 3.3 19:54:56 21° SE 19:56:55 55° ENE 20:00:52 10° N
Cosmos 1455 2.3 19:53:32 10° N 19:57:23 76° W 20:00:42 14° S
Cosmos 1328 3.7 19:54:26 10° S 19:58:23 76° E 20:02:21 10° N
Cosmos 1538 Rocket 4.4 19:58:35 12° S 20:03:20 44° ESE 20:08:23 10° NNE
COSMOS 2428 2.9 20:02:39 10° S 20:08:06 51° ESE 20:13:35 10° NE
Cosmos 1703 3.5 20:05:27 10° SSW 20:09:17 67° W 20:13:09 10° N
OAO 3 Rocket 4.1 20:06:30 10° WSW 20:10:51 32° SSW 20:12:52 23° SSE
Cosmos 2322 3.7 20:05:08 10° SSW 20:10:51 90° WNW 20:16:37 10° NNE
MetOp-B 4.3 20:06:52 14° S 20:11:31 73° WSW 20:16:53 10° NNW
Cosmos 1844 3.7 20:06:27 10° NNW 20:12:15 81° ENE 20:16:01 22° SSE
Cosmos 2181 Rocket 4.3 20:07:06 10° N 20:13:17 52° ENE 20:17:11 22° SE
DELTA 2 R/B (1) 3.9 20:08:28 10° SW 20:13:42 43° SSE 20:18:57 10° E
Cosmos 1953 Rocket 3.4 20:12:55 16° S 20:16:17 79° E 20:20:37 10° N
Cosmos 773 Rocket 4.0 20:11:44 10° SSW 20:17:01 88° WNW 20:22:21 10° NNE
Cosmos 2237 Rocket 3.3 20:17:54 22° ESE 20:19:13 24° E 20:23:39 10° NE
ERS-1 Rocket 3.2 20:16:48 24° SE 20:19:40 56° ENE 20:24:36 10° N
Cosmos 2219 Rocket 2.1 20:14:22 10° SSW 20:19:55 72° ESE 20:25:31 10° NNE
Cosmos 2360 Rocket 3.6 20:17:28 10° SW 20:22:44 39° WNW 20:28:02 10° N
Cosmos 2333 4.4 20:17:08 10° SSW 20:22:46 75° WNW 20:28:29 10° NNE
ATLAS CENTAUR R/B 2.2 20:20:03 10° NNW 20:23:23 32° NE 20:24:46 24° E
USA 215 3.2 20:17:46 10° NE 20:24:19 70° SE 20:30:49 10° SW
SPOT 5 3.2 20:23:12 26° SE 20:25:48 55° ENE 20:30:31 10° N
Cosmos 1842 Rocket 4.5 20:24:14 10° NNE 20:28:10 32° ENE 20:29:24 27° ESE
Landsat 7 4.1 20:26:08 21° S 20:29:19 65° WSW 20:34:04 10° NNW
Atlas Centaur 2 3.3 20:27:27 10° WSW 20:32:38 30° S 20:34:39 26° SSE
Cosmos 2333 Rocket 2.3 20:28:06 10° SSW 20:33:47 82° WNW 20:39:33 10° NNE
GEOS 3 Rocket 4.3 20:34:57 10° NNE 20:40:15 59° NW 20:45:31 10° SW
NOSS 0 Rocket 4.1 20:38:25 25° S 20:41:47 50° ESE 20:47:43 10° NE
Delta 2 Rocket 4.4 20:39:22 10° WSW 20:41:16 22° SW 20:41:16 22° SW
Spot 2 Rocket 4.3 20:39:25 18° SSW 20:42:57 46° W 20:47:51 10° NNW
Cosmos 1315 Rocket 2.8 20:44:31 10° N 20:48:38 82° E 20:49:47 47° SSE
Cosmos 1892 3.5 20:51:28 33° E 20:51:28 33° E 20:54:43 10° NNE
CARTOSAT-1 3.7 20:49:41 36° S 20:51:20 71° WSW 20:55:38 10° NNW
ATLAS 5 CENTAUR R/B 4.3 20:48:54 10° W 20:52:09 21° NW 20:55:40 10° N
USA 81 4.2 20:48:47 21° SSW 20:52:18 70° W 20:57:35 10° N
OAO 2 Rocket 3.8 20:47:39 10° WSW 20:52:41 43° S 20:53:38 39° SSE
USA 267 4.2 20:49:19 11° E 20:55:08 41° NNE 21:01:11 10° NW
Cosmos 2278 Rocket 2.7 20:51:06 10° NNW 20:56:35 48° ENE 20:58:50 32° ESE
Cosmos 1844 Rocket 3.9 20:53:35 10° NW 20:58:31 33° WSW 21:01:37 19° SSW
Cosmos 1680 Rocket 3.8 20:59:29 40° SE 21:00:40 47° ESE 21:05:46 10° NNE
Cosmos 1408 4.1 21:03:39 24° ENE 21:03:39 24° ENE 21:05:51 10° NNE
MTI 4.4 20:59:58 10° NNE 21:02:17 43° NE 21:02:17 43° NE
SL-16 R/B 3.7 21:04:44 20° E 21:04:44 20° E 21:08:18 10° NE
BREEZE-M R/B 3.9 21:00:52 10° WNW 21:11:00 75° SW 21:12:49 44° SE
Cosmos 2184 Rocket 3.9 21:08:51 32° S 21:12:00 89° E 21:18:20 10° N
Cosmos 2221 2.4 21:10:08 10° N 21:14:31 90° E 21:15:14 62° S
In-Cosmos 22 Rocket 3.9 21:14:18 44° S 21:16:01 79° E 21:21:21 10° NNE
Terra 2.0 21:14:57 44° SSW 21:16:21 66° WSW 21:21:06 10° NNW
Cosmos 923 Rocket 3.9 21:16:24 37° SSW 21:18:32 89° W 21:23:51 10° NNE
Cosmos 2058 2.8 21:27:38 72° SW 21:27:59 82° W 21:32:09 10° N
TSX-5 3.7 21:26:18 10° NNW 21:29:58 79° ENE 21:30:04 78° E
NOSS 3-4 (A) 4.2 21:25:24 10° NNW 21:32:22 60° NE 21:36:03 32° ESE
NOSS 3-4 (C) 4.2 21:25:30 10° NNW 21:32:28 60° NE 21:36:12 31° ESE
Cosmos 1825 3.0 21:39:57 42° NE 21:39:57 42° NE 21:42:48 10° NNE
Cosmos 1624 Rocket 4.5 21:35:11 10° N 21:40:14 47° ENE 21:41:12 42° E
Cosmos 1980 4.0 21:41:49 28° SW 21:44:48 63° WNW 21:50:26 10° NNE
EO 1 Delta rocket 4.4 21:42:01 10° NNE 21:47:19 70° E 21:48:46 52° SSE
Cosmos 1076 Rocket 3.9 21:47:32 51° WSW 21:48:02 55° W 21:52:15 10° N
Cosmos 2154 Rocket 4.1 21:49:47 40° SSW 21:52:04 70° W 21:58:17 10° N
Nadezhda 3 Rocket 4.0 21:47:08 10° N 21:53:30 78° W 21:55:18 50° S
Cosmos 2151 3.1 21:55:43 67° NE 21:55:43 67° NE 21:59:37 10° NNE
Cosmos 2341 Rocket 3.9 21:55:15 54° SSE 21:56:36 71° E 22:02:48 10° NNE
DELTA 2 R/B (1) 3.4 21:54:17 10° WSW 21:59:52 76° S 22:01:15 51° ESE
ATLAS 2AS CENTAUR R/B 2.8 21:52:49 10° NNW 22:00:21 80° NE 22:02:39 46° SE
Thor Agena Rocket 3.4 21:55:37 10° NNE 22:00:44 82° WNW 22:01:29 65° SSW
Genesis I 4.4 22:00:58 36° W 22:01:40 40° NW 22:05:22 10° NNE
ATLAS CENTAUR R/B 3.4 21:59:28 10° WNW 22:00:56 16° W 22:00:56 16° W
Cosmos 2237 Rocket 3.0 21:59:39 24° SW 22:02:54 49° WNW 22:08:26 10° NNE
BREEZE-M DEB (TANK) 3.6 22:00:26 10° NW 22:03:23 25° N 22:03:23 25° N
Spot 4 3.7 22:06:50 82° SSW 22:07:01 85° WSW 22:11:49 10° NNW
USA 215 4.5 22:01:01 10° NE 22:07:03 41° NNW 22:13:05 10° W
Cosmos 1371 Rocket 3.8 22:03:04 10° NNW 22:08:22 85° WSW 22:08:51 74° S
Cosmos 2344 3.6 22:05:03 22° SW 22:10:18 78° NW 22:18:13 10° NNE
SL-8 Rocket 3.9 22:11:02 58° SE 22:12:06 69° E 22:18:13 10° NNE
Cosmos 1408 Rocket 4.5 22:15:03 38° ENE 22:15:03 38° ENE 22:18:28 10° NNE
Cosmos 1151 Rocket 3.6 22:11:59 10° N 22:15:44 48° ENE 22:15:44 48° ENE
Gblst 52 Del rocket 4.5 22:10:56 10° WNW 22:16:46 57° SW 22:17:15 56° SSW
ALOS 2 2.8 22:18:57 61° NE 22:18:57 61° NE 22:23:01 10° N
Cosmos 1420 Rocket 4.2 22:18:09 10° NNW 22:23:23 59° ENE 22:23:55 56° E
Cosmos 2056 Rocket 3.7 22:26:51 10° NNW 22:32:11 61° WSW 22:32:26 61° WSW
GP-B 3.2 22:29:04 10° N 22:33:05 72° N 22:33:05 72° N
Nimbus 7 Rocket 4.4 22:30:53 10° N 22:36:48 75° WNW 22:37:58 58° SW
USA 267 3.2 22:36:39 57° S 22:37:52 69° SW 22:44:26 10° NW
Cosmos 1606 3.7 22:34:33 10° NNW 22:37:25 46° NNW 22:37:25 46° NNW
Cosmos 2278 Rocket 3.6 22:35:53 10° NW 22:40:18 24° W 22:40:40 24° WSW
Cosmos 1943 4.4 22:41:16 27° E 22:41:16 27° E 22:45:34 10° NE
Cosmos 44 3.9 22:40:50 42° WNW 22:41:13 44° NW 22:45:27 10° NNE
Cosmos 1339 Rocket 4.4 22:35:05 10° N 22:41:27 83° W 22:42:35 63° S
Cosmos 1048 Rocket 4.4 22:42:50 50° E 22:42:50 50° E 22:47:37 10° NNE
Gbstr 26 Del rocket 4.0 22:44:20 37° NE 22:44:20 37° NE 22:47:00 10° NE
Cosmos 2297 3.5 22:37:39 10° NNW 22:43:24 84° WSW 22:43:52 76° S
Cosmos 1943 Rocket 2.8 22:38:43 10° NNW 22:44:13 48° ENE 22:45:29 41° E
SL-16 R/B 2.6 22:46:35 46° WSW 22:47:55 57° WNW 22:53:32 10° NNE
IRIDIUM 104 4.4 22:49:58 64° WSW 22:50:13 65° W 22:55:25 10° N
Cosmos 371 Rocket 3.3 22:46:47 10° NNW 22:51:21 78° NW 22:51:21 78° NW
Lacrosse 5 rocket 3.8 22:54:04 10° NNW 22:56:56 19° NNE 22:59:14 12° ENE
Cosmos 1452 Rocket 3.4 22:53:54 10° NNW 22:59:12 82° ENE 22:59:20 81° E
Cosmos 1515 Rocket 3.9 22:56:26 10° N 23:00:08 63° N 23:00:08 63° N
Meteor 2-3 Rocket 4.0 23:12:54 50° WSW 23:13:40 54° WNW 23:19:15 10° N
Cosmos 1340 4.4 23:15:33 27° NW 23:15:33 27° NW 23:18:05 10° NNW
Cosmos 2228 Rocket 3.3 23:17:15 10° N 23:21:26 71° NNE 23:21:26 71° NNE
Resurs 1-4 Rocket 4.1 23:19:49 10° NE 23:22:53 15° E 23:23:48 15° ESE
Cosmos 1603 3.5 23:22:36 74° SSE 23:22:56 77° ESE 23:28:39 10° NNE
Meteor 2-6 Rocket 4.1 23:22:40 10° N 23:28:08 71° E 23:28:38 66° ESE
Cosmos 1743 Rocket 4.1 23:29:40 50° NW 23:29:40 50° NW 23:33:22 10° N
Sich 1 3.9 23:29:53 42° ENE 23:29:53 42° ENE 23:33:27 10° NNE
Meteor 1-10 Rocket 4.4 23:24:01 10° N 23:29:31 60° ENE 23:30:21 54° ESE
Cosmos 44 Rocket 3.4 23:32:07 63° ENE 23:32:07 63° ENE 23:36:14 10° NE
Cosmos 1821 Rocket 3.8 23:30:58 67° SSW 23:31:53 86° W 23:38:01 10° N
CZ-4 R/B 3.7 23:27:52 10° NNE 23:32:25 83° N 23:32:25 83° N
Cosmos 2369 Rocket 2.1 23:26:59 10° NNW 23:32:37 81° ENE 23:33:18 68° SE
Helios 1A 4.2 23:34:08 33° WNW 23:34:08 33° WNW 23:36:58 10° NNW
Lacrosse 5 3.9 23:36:20 16° E 23:36:20 16° E 23:38:18 10° E
Cosmos 304 Rocket 3.9 23:30:42 10° NNW 23:35:00 63° WNW 23:35:00 63° WNW
Cosmos 2123 Rocket 4.3 23:33:03 10° N 23:39:08 57° E 23:40:48 44° SE
COSMOS 2455 2.8 23:35:29 10° NW 23:41:27 64° WSW 23:41:47 63° SW
Cosmos 1656 Rocket 4.3 23:37:28 10° NNW 23:42:43 49° ENE 23:44:30 35° ESE
ATLAS 2AS CENTAUR R/B 4.2 23:45:24 10° WNW 23:50:03 20° WSW 23:50:03 20° WSW
USA 32 3.9 23:51:42 77° S 23:52:04 87° E 23:57:22 10° N
Cosmos 1812 3.5 23:48:25 10° N 23:51:25 51° N 23:51:25 51° N
